Appleton, MN

4:38 AM CDT on September 27, 2016 (GMT -0500)
Appleton Municipal

Weather History for KAQP - January, 2015

Change the Weather History Date:

Monday, January 26, 2015

  Actual Average Record
Temperature  
Mean Temperature 37 °F -  
Max Temperature 44 °F 19 °F 44 °F (2015)
Min Temperature 30 °F 3 °F -18 °F (2003)
Degree Days  
Heating Degree Days 28    
Moisture  
Dew Point 32 °F    
Average Humidity 82    
Maximum Humidity 93    
Minimum Humidity 66    
Precipitation  
Precipitation 0.01 in - - ()
Sea Level Pressure  
Sea Level Pressure 29.84 in    
Wind  
Wind Speed 11 mph (WNW)    
Max Wind Speed 24 mph    
Max Gust Speed 29 mph    
Visibility 10 miles    
Events      
Averages and records for this station are not official NWS values.
T = Trace of Precipitation, MM = Missing Value Source: NWS Daily Summary

Daily Weather History Graph

Daily Weather History Graph

Search for Another Location

Airport or City:

Trip Planner

Search our weather history database for the weather conditions in past years. The results will help you decide how hot, cold, wet, or windy it might be!

Date:

Astronomy

Jan. 26, 2015 Rise Set
Actual Time 7:51 AM CST 5:22 PM CST
Civil Twilight 7:19 AM CST 5:54 PM CST
Nautical Twilight 6:43 AM CST 6:30 PM CST
Astronomical Twilight 6:08 AM CST 7:05 PM CST
Moon 11:15 AM CST (1/26) 12:06 AM CST (1/26)
Length of Visible Light 10h 35m
Length of Day
9h 31m
Waxing Crescent, 45% of the Moon is Illuminated
Jan 26
Waxing Crescent
Jan 26
First Quarter
Feb 3
Full
Feb 11
Last Quarter
Feb 18
New

Hourly Weather History & Observations

Time (CST) Temp. Windchill Dew Point Humidity Pressure Visibility Wind Dir Wind Speed Gust Speed Precip Events Conditions
12:14 AM 30.2 °F 22.6 °F 28.4 °F 93% 29.86 in 7.0 mi South 8.1 mph - N/A   Mostly Cloudy
12:34 AM 30.2 °F 22.6 °F 28.4 °F 93% 29.85 in 7.0 mi South 8.1 mph - N/A   Mostly Cloudy
12:55 AM 32.0 °F 25.6 °F 28.4 °F 87% 29.84 in 10.0 mi SE 6.9 mph - N/A   Mostly Cloudy
1:15 AM 32.0 °F 27.5 °F 30.2 °F 93% 29.86 in 10.0 mi SE 4.6 mph - N/A   Mostly Cloudy
1:35 AM 32.0 °F 28.7 °F 28.4 °F 87% 29.86 in 10.0 mi SSE 3.5 mph - N/A   Mostly Cloudy
1:54 AM 32.0 °F 23.6 °F 30.2 °F 93% 29.79 in 10.0 mi South 10.4 mph - N/A   Scattered Clouds
2:14 AM 32.0 °F 24.2 °F 30.2 °F 93% 29.78 in 10.0 mi South 9.2 mph - N/A   Scattered Clouds
2:34 AM 33.8 °F 23.9 °F 30.2 °F 87% 29.76 in 10.0 mi South 15.0 mph - N/A   Mostly Cloudy
2:54 AM 33.8 °F 23.9 °F 30.2 °F 87% 29.72 in 10.0 mi South 15.0 mph 19.6 mph N/A   Mostly Cloudy
3:14 AM 33.8 °F 24.8 °F 30.2 °F 87% 29.70 in 10.0 mi SSW 12.7 mph 21.9 mph N/A   Scattered Clouds
3:35 AM 35.6 °F 27.5 °F 32.0 °F 87% 29.72 in 10.0 mi SSW 11.5 mph - N/A   Mostly Cloudy
3:54 AM 35.6 °F 27.1 °F 32.0 °F 87% 29.69 in 10.0 mi SSW 12.7 mph - N/A   Scattered Clouds
4:15 AM 35.6 °F 28.6 °F 32.0 °F 87% 29.71 in 10.0 mi SW 9.2 mph - N/A   Scattered Clouds
4:34 AM 35.6 °F 28.0 °F 30.2 °F 81% 29.69 in 10.0 mi SW 10.4 mph - N/A   Clear
4:54 AM 35.6 °F 28.0 °F 32.0 °F 87% 29.69 in 10.0 mi WSW 10.4 mph - N/A   Clear
5:15 AM 35.6 °F 27.1 °F 30.2 °F 81% 29.69 in 10.0 mi West 12.7 mph - N/A   Clear
5:34 AM 35.6 °F 28.0 °F 30.2 °F 81% 29.69 in 10.0 mi WNW 10.4 mph - N/A   Scattered Clouds
5:55 AM 35.6 °F 28.0 °F 30.2 °F 81% 29.70 in 10.0 mi WNW 10.4 mph - N/A   Clear
6:14 AM 35.6 °F 27.5 °F 30.2 °F 81% 29.70 in 10.0 mi West 11.5 mph - N/A   Clear
6:34 AM 35.6 °F 27.5 °F 30.2 °F 81% 29.71 in 10.0 mi West 11.5 mph - N/A   Clear
6:54 AM 35.6 °F 27.5 °F 30.2 °F 81% 29.71 in 10.0 mi WNW 11.5 mph - N/A   Clear
7:14 AM 33.8 °F 25.8 °F 30.2 °F 87% 29.72 in 10.0 mi WNW 10.4 mph - N/A   Clear
7:35 AM 33.8 °F 25.8 °F 30.2 °F 87% 29.73 in 10.0 mi West 10.4 mph - N/A   Clear
7:54 AM 33.8 °F 27.0 °F 30.2 °F 87% 29.74 in 10.0 mi WNW 8.1 mph - N/A   Clear
8:14 AM 33.8 °F 25.8 °F 30.2 °F 87% 29.75 in 10.0 mi WNW 10.4 mph - N/A   Clear
8:35 AM 35.6 °F 27.1 °F 32.0 °F 87% 29.75 in 10.0 mi WNW 12.7 mph - 0.01 in   Clear
8:54 AM 37.4 °F 30.3 °F 32.0 °F 81% 29.75 in 10.0 mi West 10.4 mph - 0.01 in   Clear
9:14 AM 37.4 °F 30.3 °F 32.0 °F 81% 29.76 in 10.0 mi West 10.4 mph - N/A   Clear
9:35 AM 37.4 °F 28.9 °F 32.0 °F 81% 29.76 in 10.0 mi West 13.8 mph - N/A   Clear
9:54 AM 39.2 °F 31.2 °F 33.8 °F 81% 29.77 in 10.0 mi WNW 13.8 mph - N/A   Clear
10:14 AM 39.2 °F 32.0 °F 33.8 °F 81% 29.78 in 10.0 mi WNW 11.5 mph - N/A   Clear
10:34 AM 41.0 °F 33.1 °F 33.8 °F 76% 29.79 in 10.0 mi WNW 15.0 mph - N/A   Clear
10:55 AM 42.8 °F 34.8 °F 33.8 °F 70% 29.80 in 10.0 mi WNW 17.3 mph 20.7 mph N/A   Clear
11:15 AM 42.8 °F 35.1 °F 35.6 °F 76% 29.81 in 10.0 mi WNW 16.1 mph 24.2 mph N/A   Clear
11:34 AM 44.6 °F 38.1 °F 35.6 °F 71% 29.81 in 10.0 mi NW 13.8 mph - N/A   Clear
11:54 AM 44.6 °F 36.6 °F 35.6 °F 71% 29.81 in 10.0 mi NW 19.6 mph 25.3 mph N/A   Clear
12:14 PM 44.6 °F 36.6 °F 35.6 °F 71% 29.82 in 10.0 mi NW 19.6 mph 26.5 mph N/A   Clear
12:34 PM 44.6 °F 35.9 °F 35.6 °F 71% 29.82 in 10.0 mi NW 23.0 mph 27.6 mph N/A   Clear
12:54 PM 44.6 °F 36.4 °F 35.6 °F 71% 29.83 in 10.0 mi NW 20.7 mph 28.8 mph N/A   Clear
1:15 PM 44.6 °F 37.2 °F 35.6 °F 71% 29.83 in 10.0 mi NW 17.3 mph 28.8 mph N/A   Clear
1:34 PM 44.6 °F 35.7 °F 35.6 °F 71% 29.84 in 10.0 mi NW 24.2 mph - N/A   Clear
1:54 PM 44.6 °F 35.9 °F 35.6 °F 71% 29.84 in 10.0 mi NW 23.0 mph 28.8 mph N/A   Clear
2:15 PM 44.6 °F 36.6 °F 35.6 °F 71% 29.84 in 10.0 mi NW 19.6 mph - N/A   Scattered Clouds
2:34 PM 44.6 °F 36.6 °F 35.6 °F 71% 29.85 in 10.0 mi NNW 19.6 mph 27.6 mph N/A   Scattered Clouds
2:54 PM 44.6 °F 36.4 °F 35.6 °F 71% 29.86 in 10.0 mi NNW 20.7 mph - N/A   Scattered Clouds
3:14 PM 44.6 °F 36.9 °F 33.8 °F 66% 29.87 in 10.0 mi NNW 18.4 mph 24.2 mph N/A   Mostly Cloudy
3:34 PM 44.6 °F 36.6 °F 35.6 °F 71% 29.88 in 10.0 mi NNW 19.6 mph 25.3 mph N/A   Mostly Cloudy
3:54 PM 42.8 °F 35.4 °F 33.8 °F 70% 29.88 in 10.0 mi NW 15.0 mph - N/A   Scattered Clouds
4:15 PM 42.8 °F 35.8 °F 33.8 °F 70% 29.89 in 10.0 mi NW 13.8 mph - N/A   Scattered Clouds
4:54 PM 41.0 °F 33.9 °F 33.8 °F 76% 29.91 in 10.0 mi NNW 12.7 mph - N/A   Overcast
5:15 PM 39.2 °F 32.0 °F 33.8 °F 81% 29.91 in 10.0 mi NNW 11.5 mph - N/A   Overcast
5:34 PM 39.2 °F 32.0 °F 33.8 °F 81% 29.92 in 10.0 mi NNW 11.5 mph - N/A   Overcast
5:54 PM 39.2 °F 31.6 °F 33.8 °F 81% 29.93 in 10.0 mi NW 12.7 mph - N/A   Mostly Cloudy
6:14 PM 37.4 °F 30.3 °F 32.0 °F 81% 29.95 in 10.0 mi NW 10.4 mph - N/A   Scattered Clouds
6:34 PM 37.4 °F 30.8 °F 32.0 °F 81% 29.96 in 10.0 mi NW 9.2 mph - N/A   Mostly Cloudy
6:54 PM 35.6 °F 28.0 °F 32.0 °F 87% 29.95 in 10.0 mi NW 10.4 mph - N/A   Scattered Clouds
7:14 PM 35.6 °F 29.9 °F 30.2 °F 81% 29.97 in 10.0 mi NW 6.9 mph - N/A   Clear
7:34 PM 35.6 °F 29.9 °F 30.2 °F 81% 29.98 in 10.0 mi NNW 6.9 mph - N/A   Clear
7:55 PM 33.8 °F 27.7 °F 30.2 °F 87% 29.97 in 10.0 mi NNW 6.9 mph - N/A   Clear
8:15 PM 33.8 °F 25.8 °F 30.2 °F 87% 29.99 in 10.0 mi NNW 10.4 mph - N/A   Clear
8:35 PM 33.8 °F 27.0 °F 30.2 °F 87% 29.99 in 10.0 mi NNW 8.1 mph - N/A   Clear
8:54 PM 32.0 °F 25.6 °F 30.2 °F 93% 29.99 in 10.0 mi North 6.9 mph - N/A   Clear
9:15 PM 32.0 °F 24.8 °F 30.2 °F 93% 29.99 in 10.0 mi North 8.1 mph - N/A   Clear
9:34 PM 32.0 °F 22.5 °F 30.2 °F 93% 29.99 in 10.0 mi North 12.7 mph - N/A   Clear
9:54 PM 32.0 °F 24.2 °F 30.2 °F 93% 30.00 in 10.0 mi NNW 9.2 mph - N/A   Mostly Cloudy
10:14 PM 32.0 °F 24.8 °F 30.2 °F 93% 30.01 in 10.0 mi NNW 8.1 mph - N/A   Mostly Cloudy
10:34 PM 30.2 °F 24.3 °F 28.4 °F 93% 30.01 in 10.0 mi NNW 5.8 mph - N/A   Mostly Cloudy
10:54 PM 30.2 °F 25.4 °F 28.4 °F 93% 30.02 in 10.0 mi NNW 4.6 mph - N/A   Mostly Cloudy
11:14 PM 30.2 °F 24.3 °F 28.4 °F 93% 30.03 in 10.0 mi NNW 5.8 mph - N/A   Scattered Clouds
11:34 PM 30.2 °F 26.7 °F 28.4 °F 93% 30.03 in 10.0 mi NNW 3.5 mph - N/A   Clear
11:54 PM 30.2 °F 26.7 °F 28.4 °F 93% 30.03 in 10.0 mi WNW 3.5 mph - N/A   Clear